Vertical_Velocity
0 0 -0 0 -1 -1 -1 -1 -2 0 -1 -2 -1 -1 -2 -1 -1 -1 -2 -1 -1 -0 0 -0 -1 -1 -1 -1 -1 -1 0 -0 -1 -1 -1 -1 -1 -1 -3 -2 -3 -3 -2 -1 -1 -1 -2
-0 -0 -1 -0 -1 -0 0 -0 -1 -1 -1 -0 0 -0 -1 -2 -1 -2 -1 -0 -1 -1 -2 -1 -2 -2 -1 -1 -1 -1 -2 -2 -0 0 -1 -1 -1 -1 -2 -4 -3 -2 -3 -2 -2 -4 -4
-1 -1 -1 -0 -1 -1 -1 -1 -1 0 -0 -1 -1 -1 -1 -2 -2 -1 -1 -2 0 -0 -1 -0 -0 -1 -2 -1 -1 -1 0 0 -1 -2 -1 -1 -1 -1 -1 -0 -1 -2 -4 -7 5 -0 -2
-1 -1 -1 -2 -2 -1 -2 -2 -1 -2 -1 -0 0 -1 -0 -1 -1 -2 -2 -1 -2 -1 -1 -1 -1 0 -1 -0 -1 -0 0 0 -0 1 -0 0 0 -1 -2 -3 -2 -5 -1 -1 -9 -7 0
-1 -1 -1 -0 0 -0 0 -0 -1 -1 -0 -1 -1 -1 -1 -0 -1 -1 -0 -1 -1 -1 -1 -2 -3 -1 -2 -2 -1 -0 -1 0 0 -0 -1 -1 -0 -0 -1 -2 -7 -2 -4 -6 -2 4 -8
-1 -2 -2 -1 -2 -2 -0 -1 -1 -0 -1 -1 -0 -2 -1 -0 -0 -1 -1 -0 -0 -1 -1 -2 -2 -1 -3 -1 -2 -2 -2 -0 0 -0 -0 -1 -1 -2 1 -4 -1 -1 -5 2 -9 -6 -6
0 -0 -0 -0 0 -1 -0 -1 -2 -0 -1 -0 -2 -1 -1 -1 -2 -1 -1 -2 -3 -1 -2 -2 1 -3 -1 -2 1 0 -0 0 0 1 -0 1 -1 1 -6 0 -4 -3 -3 -7 -4 0 -1
-1 -1 -2 -1 -1 -1 -2 -1 -2 -2 -2 -2 -2 -3 -3 -3 -2 -3 -3 -3 -6 -3 12 -4 -4 -2 -3 -2 0 -2 -1 1 -2 -3 3 3 2 1 -1 -1 -1 -2 -3 -2 5 -6 -3
-2 -2 -2 -3 -1 -2 -2 -1 -1 -1 -1 -2 -3 -2 -3 -2 -3 -3 -2 -2 -4 -3 -3 12 -4 -2 -2 -2 -4 1 1 -2 0 2 -2 -2 -9 3 1 -1 -0 0 -2 -2 -5 1 1
0 1 -0 -1 -2 -1 -1 -2 -2 -1 -0 -0 0 -1 -2 -4 -3 -1 -4 -4 -3 -8 -6 1 -1 -0 -0 -1 3 2 -0 -0 -1 -1 -2 1 3 -1 2 4 -2 2 1 -2 -2 -3 -5
-1 -2 -2 -2 -3 -3 -3 -2 -1 -1 -2 -1 -1 -4 -0 -3 1 -1 1 -3 -4 -7 -18 -9 -6 -2 2 -1 -4 3 -2 -2 1 2 0 1 3 1 -5 -1 1 0 1 -1 -1 -4 0
-3 -1 -1 -1 -1 -2 -2 -3 -2 -1 -2 -1 -1 0 -6 -0 -1 2 -2 -2 0 -3 -5 -5 -3 -2 -4 -1 -2 -1 -0 -3 3 -0 -3 10 -2 -0 0 1 -2 1 3 1 1 -0 -0
0 -0 -1 -1 -1 -1 -1 -1 -1 -1 -2 0 -2 -2 -0 -3 4 -0 -3 -1 -4 5 -4 -12 -2 1 2 -4 0 1 -0 3 -1 -6 7 4 9 7 -3 0 1 0 -1 -3 -1 -4 -5
-2 0 -1 -1 -2 -2 -3 -1 -1 -1 -3 -0 0 -0 -2 -1 -2 -3 -2 -1 -6 -1 2 -6 -1 -5 -4 10 -4 -4 5 -3 7 1 -10 4 -1 6 11 3 1 3 2 4 -7 0 2
-0 -3 -1 -0 -1 -1 -0 -4 -0 -1 -1 -1 0 -1 -2 1 0 -1 -5 1 -4 1 2 -0 7 -8 10 2 3 -5 -1 6 2 -1 2 -6 -1 1 4 7 -1 6 3 4 -7 2 -1
-2 -2 -2 -2 -1 -1 -2 -1 -1 2 -1 -1 0 0 -0 -0 -1 -3 -4 -0 -15 7 -1 -3 -6 9 -2 16 -19 -7 11 4 -5 12 1 6 -12 2 6 3 7 -6 4 -2 3 -7 -6
1 -1 -1 -1 -3 -0 -2 -0 -1 -6 2 -1 -2 2 -5 -3 -2 -4 -5 -2 3 -2 0 -5 0 -13 -1 -7 2 11 -13 -0 2 5 1 4 4 8 0 9 3 5 -0 3 -0 1 -2
-2 -1 -2 -2 -2 0 -1 -0 2 3 -3 4 -2 3 -2 -6 -3 -3 -2 -4 2 1 -2 -2 -4 -5 -4 5 0 2 -1 -2 15 2 5 1 -4 -3 0 2 9 -3 2 -2 -3 8 -0
1 -0 -2 -0 2 2 -0 0 -0 -1 -0 -3 -5 -0 -7 -4 -4 -8 -1 5 -4 -2 1 3 -1 -9 -5 4 -13 7 2 4 4 3 1 2 -14 -8 3 0 2 1 4 2 -3 -2 11
-3 -2 -2 -2 -0 -0 3 -3 -4 1 1 -4 1 -4 2 4 -4 -7 -6 -1 -2 -1 -4 2 -4 -2 -5 2 5 -9 4 -20 16 2 4 -2 2 1 -7 8 -1 -4 4 2 -0 -2 12
-1 -2 0 -2 -3 1 -1 -1 -0 -1 -4 -4 -5 -0 -8 -13 -14 11 -4 1 2 -6 -1 -1 -5 -1 -1 -7 -2 -1 -6 3 9 2 4 0 -10 1 4 5 -3 -1 -6 3 -7 14 -15
-2 -1 0 -3 -1 -6 1 4 -3 -1 -3 -3 -6 -6 1 1 -4 -3 -9 -2 2 -1 2 6 -6 2 -0 -5 -8 2 -2 -2 4 6 3 3 -7 -1 2 5 -1 -16 4 11 10 14 -7
-0 -1 -1 -1 0 -3 -1 1 2 -2 -0 6 -3 -7 -4 4 -7 -2 -3 -5 -1 -1 8 8 0 -2 3 -7 -2 1 -3 5 5 -2 6 -0 0 1 -9 3 -5 -33 25 4 2 2 -5
-0 -2 -0 -2 -3 -3 -2 -2 -0 -2 -0 -1 -2 -2 -1 2 -4 -1 4 2 7 4 -5 1 -1 -4 2 3 5 -2 -1 1 -3 15 5 -2 5 0 -5 2 -28 31 2 5 -1 8 -4
2 -3 -3 -0 -1 -2 -1 -1 -2 -4 -5 -4 -5 -2 -5 -5 2 8 6 -0 4 4 5 -1 6 3 2 -1 -5 -9 14 3 2 0 5 2 3 -3 -6 1 5 12 -6 -3 10 -1 -2
-2 -4 -1 -1 -3 1 -3 -4 -5 -4 -4 -3 -3 -3 -4 -2 -2 -2 0 0 -3 -2 9 11 -8 2 4 -1 2 -6 0 4 10 -1 5 6 8 -6 6 4 2 3 2 4 -0 -6 -9
-1 -3 -2 -2 -0 -3 -4 -4 -4 -4 -3 -0 -3 -6 -5 -4 11 7 7 3 3 -1 -5 -1 6 8 -6 0 1 3 2 -2 4 12 -11 15 2 -1 13 -11 8 -3 7 0 10 -28 -1
0 -0 -1 -2 -2 -3 -1 -2 -3 -0 -1 -4 2 -4 -7 -13 13 2 4 -2 3 6 -3 3 5 0 0 7 2 9 1 3 11 -3 8 7 6 12 -5 -1 4 4 6 10 -2 -1 1
-2 -2 -1 -3 -1 1 -2 -2 -1 -2 -4 -7 3 -4 -8 -15 -2 3 2 -11 0 4 -7 6 1 7 8 6 4 -1 4 6 9 -1 8 7 5 4 -2 -1 3 -10 -6 15 -5 -10 -5
Height
5814 5814 5814 5813 5813 5812 5812 5810 5809 5807 5806 5805 5804 5802 5801 5799 5798 5797 5796 5794 5793 5791 5789 5788 5786 5785 5784 5783 5781 5779 5778 5776 5775 5774 5772 5771 5770 5768 5766 5764 5763 5759 5756 5753 5751 5748 5745
5812 5812 5812 5812 5811 5810 5809 5808 5807 5806 5805 5804 5802 5801 5799 5797 5796 5794 5792 5791 5789 5787 5786 5784 5783 5781 5780 5780 5777 5776 5774 5773 5772 5770 5769 5767 5765 5763 5762 5759 5757 5754 5750 5747 5744 5740 5737
5810 5810 5810 5809 5809 5808 5807 5806 5805 5804 5802 5801 5799 5797 5795 5793 5792 5790 5789 5787 5785 5783 5782 5780 5779 5778 5777 5776 5774 5772 5770 5769 5767 5766 5764 5763 5761 5759 5757 5755 5751 5748 5745 5740 5738 5735 5731
5807 5808 5807 5807 5806 5805 5805 5803 5802 5801 5799 5797 5795 5793 5792 5790 5788 5786 5784 5782 5781 5779 5778 5776 5775 5773 5772 5770 5769 5768 5766 5765 5763 5762 5760 5758 5756 5754 5751 5749 5746 5743 5741 5736 5730 5726 5723
5804 5805 5804 5804 5803 5802 5801 5800 5799 5797 5796 5794 5792 5789 5787 5785 5783 5781 5779 5777 5775 5774 5773 5771 5770 5769 5768 5766 5764 5763 5761 5760 5759 5757 5755 5753 5751 5749 5746 5743 5740 5737 5734 5731 5726 5721 5718
5801 5801 5800 5800 5799 5798 5797 5796 5795 5793 5792 5790 5788 5786 5784 5782 5779 5777 5775 5773 5770 5769 5767 5766 5765 5765 5763 5761 5759 5758 5756 5754 5753 5752 5750 5748 5745 5743 5742 5738 5735 5732 5729 5726 5719 5715 5709
5798 5798 5798 5797 5796 5795 5794 5793 5792 5790 5788 5786 5784 5782 5780 5778 5776 5774 5772 5770 5768 5766 5763 5761 5759 5758 5756 5756 5754 5752 5750 5748 5746 5745 5744 5742 5740 5737 5734 5732 5729 5725 5722 5719 5715 5710 5706
5796 5795 5794 5793 5792 5791 5789 5788 5786 5784 5783 5781 5780 5778 5777 5774 5772 5770 5768 5765 5763 5761 5763 5759 5756 5753 5751 5749 5747 5745 5743 5742 5740 5738 5736 5735 5733 5731 5728 5725 5723 5720 5717 5715 5711 5704 5698
5791 5791 5790 5789 5788 5787 5786 5784 5783 5781 5780 5778 5777 5774 5773 5771 5768 5766 5763 5762 5758 5755 5752 5756 5752 5749 5746 5744 5741 5740 5736 5735 5733 5731 5728 5726 5725 5724 5720 5718 5716 5714 5711 5708 5703 5701 5697
5788 5788 5787 5786 5784 5784 5782 5780 5779 5777 5775 5774 5772 5770 5768 5765 5765 5761 5758 5754 5751 5748 5745 5751 5746 5743 5740 5737 5736 5733 5730 5729 5726 5724 5722 5720 5720 5716 5714 5713 5709 5707 5706 5702 5699 5694 5691
5784 5783 5783 5782 5780 5779 5777 5775 5774 5772 5770 5768 5767 5764 5762 5759 5756 5754 5752 5748 5745 5742 5739 5739 5738 5734 5732 5731 5728 5726 5723 5720 5718 5717 5716 5714 5711 5710 5707 5706 5703 5701 5699 5696 5693 5688 5686
5779 5779 5778 5777 5775 5774 5772 5770 5769 5767 5763 5761 5759 5757 5755 5752 5750 5746 5743 5741 5738 5736 5732 5731 5728 5727 5724 5722 5719 5717 5716 5713 5711 5708 5706 5707 5701 5702 5700 5699 5697 5694 5692 5690 5686 5684 5681
5774 5773 5772 5771 5769 5768 5766 5765 5762 5759 5756 5753 5750 5748 5745 5742 5740 5737 5734 5732 5730 5726 5726 5721 5719 5717 5714 5711 5709 5708 5705 5704 5701 5698 5696 5696 5696 5694 5692 5690 5689 5688 5685 5681 5680 5677 5674
5768 5768 5767 5765 5763 5761 5758 5756 5753 5750 5747 5745 5742 5739 5737 5734 5731 5729 5727 5725 5722 5719 5716 5712 5710 5707 5703 5701 5698 5696 5695 5693 5692 5689 5684 5683 5682 5684 5686 5683 5682 5680 5680 5678 5670 5671 5669
5764 5763 5761 5758 5756 5753 5750 5747 5745 5742 5739 5737 5735 5732 5730 5727 5724 5722 5721 5718 5714 5711 5709 5706 5703 5698 5696 5690 5687 5683 5683 5682 5680 5678 5677 5673 5673 5672 5673 5674 5674 5672 5671 5670 5666 5664 5660
5758 5756 5754 5751 5747 5743 5740 5738 5736 5734 5732 5730 5727 5725 5723 5720 5717 5715 5713 5710 5706 5702 5699 5695 5691 5690 5686 5683 5676 5672 5671 5670 5669 5669 5665 5666 5663 5664 5662 5662 5664 5664 5662 5662 5660 5656 5653
5751 5748 5745 5742 5739 5735 5732 5730 5729 5726 5725 5722 5721 5719 5716 5713 5710 5708 5704 5701 5696 5692 5689 5685 5681 5676 5673 5669 5665 5663 5660 5656 5656 5655 5653 5654 5653 5655 5653 5652 5651 5654 5653 5652 5650 5650 5646
5743 5739 5736 5732 5730 5728 5726 5723 5720 5718 5716 5715 5713 5711 5708 5704 5703 5698 5694 5690 5687 5682 5676 5672 5668 5663 5660 5656 5654 5650 5648 5642 5644 5642 5642 5640 5639 5640 5642 5640 5639 5639 5641 5641 5640 5644 5639
5736 5732 5728 5724 5722 5720 5718 5716 5713 5711 5709 5707 5705 5702 5699 5695 5691 5688 5684 5678 5674 5669 5664 5658 5653 5650 5646 5644 5638 5638 5634 5633 5632 5630 5629 5627 5625 5625 5628 5629 5628 5628 5629 5631 5630 5629 5630
5727 5724 5721 5717 5715 5713 5710 5709 5706 5702 5700 5698 5696 5692 5689 5686 5681 5674 5670 5665 5659 5654 5649 5644 5640 5635 5633 5631 5626 5625 5622 5618 5621 5620 5617 5614 5615 5615 5614 5616 5615 5615 5619 5619 5618 5618 5620
5718 5714 5711 5708 5707 5705 5703 5700 5697 5693 5691 5689 5684 5682 5678 5674 5668 5663 5655 5650 5644 5637 5635 5630 5625 5622 5621 5618 5614 5612 5610 5609 5609 5607 5606 5604 5604 5603 5605 5603 5602 5606 5605 5606 5604 5610 5605
5707 5704 5701 5700 5699 5697 5694 5691 5689 5685 5681 5677 5673 5671 5667 5660 5653 5647 5639 5636 5630 5624 5621 5617 5613 5609 5607 5605 5602 5601 5599 5597 5597 5596 5594 5593 5593 5591 5594 5592 5591 5593 5596 5595 5599 5599 5594
5699 5696 5694 5692 5690 5688 5685 5683 5679 5674 5671 5666 5661 5658 5651 5645 5639 5632 5625 5618 5614 5609 5609 5602 5598 5596 5593 5590 5590 5588 5586 5586 5585 5584 5582 5581 5580 5580 5581 5580 5581 5586 5588 5586 5587 5586 5586
5691 5689 5686 5683 5680 5677 5674 5671 5668 5663 5659 5654 5650 5643 5639 5633 5623 5615 5609 5604 5599 5593 5588 5585 5580 5578 5576 5574 5574 5570 5571 5571 5569 5571 5567 5568 5568 5567 5568 5568 5571 5577 5572 5573 5577 5577 5577
5683 5680 5677 5674 5670 5666 5663 5659 5654 5650 5646 5640 5634 5628 5622 5616 5608 5600 5592 5586 5581 5574 5568 5563 5560 5556 5553 5553 5551 5551 5553 5552 5553 5553 5554 5553 5552 5552 5553 5554 5562 5562 5560 5562 5563 5564 5567
5674 5672 5668 5664 5659 5656 5652 5647 5642 5635 5630 5623 5616 5610 5605 5599 5588 5579 5572 5564 5558 5552 5548 5540 5533 5532 5529 5528 5527 5526 5528 5531 5530 5532 5535 5537 5537 5538 5540 5540 5546 5546 5549 5551 5551 5550 5556
5664 5661 5658 5654 5649 5644 5639 5633 5627 5620 5614 5608 5599 5592 5586 5581 5573 5559 5548 5541 5530 5523 5518 5513 5510 5506 5502 5502 5502 5504 5506 5508 5510 5509 5515 5518 5516 5522 5523 5524 5529 5533 5537 5537 5539 5539 5543
5654 5650 5647 5642 5636 5631 5626 5619 5613 5606 5598 5591 5581 5570 5563 5558 5553 5536 5521 5510 5503 5496 5489 5487 5482 5481 5478 5478 5480 5483 5483 5484 5488 5489 5495 5499 5502 5506 5505 5509 5510 5515 5521 5524 5524 5524 5528
5644 5640 5635 5630 5624 5619 5613 5606 5599 5591 5581 5572 5564 5549 5539 5532 5528 5510 5496 5485 5480 5476 5470 5470 5469 5470 5467 5465 5466 5465 5468 5467 5470 5474 5478 5483 5483 5485 5487 5492 5494 5495 5503 5506 5505 5511 5515